• Em Portugal
  • Lista de países
  • Para 7 dias
  • Temperatura da água
  • Mapas de satélite
  • Mapa do tempo
  • Widgets de tempo
  • user-avatar
    Iniciar Sessão

    Previsão horária em Jazd

    Hoje, 13 Novembro, Terça-feira

    Tempo Temperatura Precipitação Vento Pressão Humidade
    00:00 +5°C° 0 mm 2 m/s 561 mmHg 58%
    01:00 +5°C° 0 mm 2 m/s 560 mmHg 61%
    02:00 +4°C° 0 mm 2 m/s 560 mmHg 63%
    03:00 +5°C° 0 mm 1 m/s 560 mmHg 65%
    04:00 +4°C° 0 mm 1 m/s 560 mmHg 67%
    05:00 +4°C° 0 mm 1 m/s 559 mmHg 68%
    06:00 +4°C° 0 mm 1 m/s 559 mmHg 69%
    07:00 +3°C° 0 mm 1 m/s 559 mmHg 70%
    08:00 +4°C° 0 mm 1 m/s 560 mmHg 64%
    09:00 +6°C° 0 mm 1 m/s 561 mmHg 57%
    10:00 +7°C° 0 mm 1 m/s 561 mmHg 51%
    11:00 +7°C° 0 mm 1 m/s 561 mmHg 47%
    12:00 +8°C° 0 mm 1 m/s 561 mmHg 44%
    13:00 +9°C° 0 mm 1 m/s 561 mmHg 40%
    14:00 +9°C° 0 mm 1 m/s 561 mmHg 39%
    15:00 +9°C° 0 mm 1 m/s 561 mmHg 38%
    16:00 +8°C° 0 mm 2 m/s 561 mmHg 36%
    17:00 +8°C° 0 mm 2 m/s 561 mmHg 39%
    18:00 +7°C° 0 mm 2 m/s 561 mmHg 41%
    19:00 +7°C° 0 mm 3 m/s 561 mmHg 43%
    20:00 +5°C° 0 mm 3 m/s 561 mmHg 46%
    21:00 +6°C° 0 mm 2 m/s 561 mmHg 48%
    22:00 +5°C° 0 mm 2 m/s 560 mmHg 51%
    23:00 +5°C° 0 mm 2 m/s 560 mmHg 53%

    Amanhã, 14 Novembro, Quarta-feira

    Tempo Temperatura Precipitação Vento Pressão Humidade
    00:00 +4°C° 0 mm 2 m/s 560 mmHg 56%
    01:00 +4°C° 0 mm 2 m/s 560 mmHg 58%
    02:00 +4°C° 0 mm 1 m/s 560 mmHg 59%
    03:00 +4°C° 0 mm 1 m/s 559 mmHg 61%
    04:00 +4°C° 0 mm 1 m/s 559 mmHg 62%
    05:00 +3°C° 0 mm 1 m/s 559 mmHg 62%
    06:00 +3°C° 0 mm 1 m/s 559 mmHg 63%
    07:00 +3°C° 0 mm 1 m/s 559 mmHg 63%
    08:00 +4°C° 0 mm 1 m/s 560 mmHg 58%
    09:00 +4°C° 0 mm 2 m/s 560 mmHg 52%
    10:00 +6°C° 0 mm 2 m/s 561 mmHg 47%
    11:00 +7°C° 0 mm 2 m/s 561 mmHg 43%
    12:00 +7°C° 0 mm 2 m/s 561 mmHg 39%
    13:00 +8°C° 0 mm 2 m/s 561 mmHg 35%
    14:00 +9°C° 0 mm 3 m/s 561 mmHg 33%
    15:00 +9°C° 0 mm 3 m/s 561 mmHg 32%
    16:00 +9°C° 0 mm 3 m/s 561 mmHg 30%
    17:00 +9°C° 0 mm 3 m/s 561 mmHg 31%
    18:00 +9°C° 0 mm 3 m/s 561 mmHg 32%
    19:00 +8°C° 0 mm 2 m/s 561 mmHg 33%
    20:00 +8°C° 0.3 mm 3 m/s 561 mmHg 38%
    21:00 +7°C° 0.3 mm 3 m/s 561 mmHg 44%
    22:00 +5°C° 0.3 mm 4 m/s 561 mmHg 49%
    23:00 +5°C° 1.5 mm 3 m/s 560 mmHg 55%

    Depois de amanhã, 15 Novembro, Quinta-feira

    Tempo Temperatura Precipitação Vento Pressão Humidade
    00:00 +5°C° 1.5 mm 2 m/s 560 mmHg 60%
    01:00 +6°C° 1.5 mm 1 m/s 560 mmHg 66%
    02:00 +5°C° 1.5 mm 2 m/s 560 mmHg 67%
    03:00 +5°C° 1.5 mm 2 m/s 560 mmHg 69%
    04:00 +4°C° 1.5 mm 3 m/s 560 mmHg 70%
    05:00 +5°C° 1.3 mm 2 m/s 560 mmHg 72%
    06:00 +5°C° 1.3 mm 2 m/s 560 mmHg 74%
    07:00 +4°C° 1.3 mm 2 m/s 560 mmHg 76%
    08:00 +5°C° 0.3 mm 2 m/s 561 mmHg 73%
    09:00 +6°C° 0.3 mm 2 m/s 561 mmHg 70%
    10:00 +7°C° 0.3 mm 3 m/s 562 mmHg 67%
    11:00 +7°C° 0.6 mm 2 m/s 562 mmHg 65%
    12:00 +7°C° 0.6 mm 2 m/s 562 mmHg 64%
    13:00 +8°C° 0.6 mm 2 m/s 562 mmHg 62%
    14:00 +8°C° 0.9 mm 2 m/s 562 mmHg 63%
    15:00 +7°C° 0.9 mm 2 m/s 562 mmHg 63%
    16:00 +7°C° 0.9 mm 2 m/s 562 mmHg 64%
    17:00 +7°C° 0.5 mm 2 m/s 562 mmHg 66%
    18:00 +7°C° 0.5 mm 2 m/s 562 mmHg 67%
    19:00 +7°C° 0.5 mm 2 m/s 562 mmHg 69%
    20:00 +7°C° 0.3 mm 2 m/s 562 mmHg 70%
    21:00 +7°C° 0.3 mm 2 m/s 562 mmHg 71%
    22:00 +7°C° 0.3 mm 2 m/s 563 mmHg 72%
    23:00 +7°C° 0.3 mm 2 m/s 563 mmHg 72%

    16 Novembro, Sexta-feira

    Tempo Temperatura Precipitação Vento Pressão Humidade
    00:00 +7°C° 0.3 mm 2 m/s 562 mmHg 72%
    01:00 +7°C° 0.3 mm 2 m/s 562 mmHg 71%
    02:00 +7°C° 0.1 mm 2 m/s 562 mmHg 69%
    03:00 +7°C° 0.1 mm 2 m/s 562 mmHg 67%
    04:00 +7°C° 0.1 mm 2 m/s 562 mmHg 66%
    05:00 +7°C° 0.1 mm 2 m/s 562 mmHg 66%
    06:00 +7°C° 0.1 mm 2 m/s 562 mmHg 66%
    07:00 +7°C° 0.1 mm 2 m/s 562 mmHg 66%
    08:00 +8°C° 0.3 mm 3 m/s 562 mmHg 64%
    09:00 +8°C° 0.3 mm 3 m/s 563 mmHg 62%
    10:00 +8°C° 0.3 mm 4 m/s 563 mmHg 59%
    11:00 +10°C° 0.1 mm 4 m/s 563 mmHg 56%
    12:00 +9°C° 0.1 mm 5 m/s 563 mmHg 53%
    13:00 +10°C° 0.1 mm 5 m/s 563 mmHg 50%
    14:00 +10°C° 1.2 mm 4 m/s 563 mmHg 55%
    15:00 +8°C° 1.2 mm 4 m/s 562 mmHg 60%
    16:00 +8°C° 1.2 mm 3 m/s 562 mmHg 65%
    17:00 +8°C° 0.4 mm 3 m/s 562 mmHg 66%
    18:00 +8°C° 0.4 mm 2 m/s 562 mmHg 67%
    19:00 +8°C° 0.4 mm 2 m/s 562 mmHg 68%
    20:00 +8°C° 0.2 mm 2 m/s 562 mmHg 68%
    21:00 +8°C° 0.2 mm 2 m/s 562 mmHg 68%
    22:00 +8°C° 0.2 mm 2 m/s 563 mmHg 67%
    23:00 +8°C° 0.3 mm 2 m/s 562 mmHg 69%

    17 Novembro, Sábado

    Tempo Temperatura Precipitação Vento Pressão Humidade
    00:00 +7°C° 0.3 mm 2 m/s 562 mmHg 70%
    01:00 +7°C° 0.3 mm 3 m/s 562 mmHg 71%
    02:00 +7°C° 0 mm 2 m/s 561 mmHg 72%
    03:00 +6°C° 0 mm 2 m/s 561 mmHg 73%
    04:00 +5°C° 0 mm 2 m/s 561 mmHg 75%
    05:00 +5°C° 0 mm 2 m/s 561 mmHg 75%
    06:00 +5°C° 0 mm 2 m/s 561 mmHg 75%
    07:00 +5°C° 0 mm 1 m/s 561 mmHg 76%
    08:00 +5°C° 0 mm 2 m/s 562 mmHg 70%
    09:00 +6°C° 0 mm 2 m/s 562 mmHg 64%
    10:00 +7°C° 0 mm 2 m/s 563 mmHg 58%
    11:00 +7°C° 0 mm 2 m/s 563 mmHg 54%
    12:00 +8°C° 0 mm 2 m/s 563 mmHg 51%
    13:00 +9°C° 0 mm 2 m/s 563 mmHg 48%
    14:00 +9°C° 0 mm 2 m/s 562 mmHg 46%
    15:00 +9°C° 0 mm 2 m/s 562 mmHg 45%
    16:00 +9°C° 0 mm 2 m/s 562 mmHg 43%
    17:00 +9°C° 0 mm 1 m/s 562 mmHg 46%
    18:00 +9°C° 0 mm 1 m/s 562 mmHg 49%
    19:00 +8°C° 0 mm 1 m/s 562 mmHg 51%
    20:00 +8°C° 0 mm 1 m/s 562 mmHg 53%
    21:00 +7°C° 0 mm 1 m/s 562 mmHg 56%
    22:00 +7°C° 0 mm 1 m/s 561 mmHg 58%
    23:00 +7°C° 0 mm 1 m/s 561 mmHg 58%

    18 Novembro, Domingo

    Tempo Temperatura Precipitação Vento Pressão Humidade
    00:00 +6°C° 0 mm 1 m/s 561 mmHg 59%
    01:00 +6°C° 0 mm 1 m/s 560 mmHg 59%
    02:00 +6°C° 0 mm 1 m/s 560 mmHg 60%
    03:00 +5°C° 0 mm 1 m/s 560 mmHg 60%
    04:00 +5°C° 0 mm 1 m/s 559 mmHg 61%
    05:00 +5°C° 0 mm 1 m/s 559 mmHg 62%
    06:00 +5°C° 0 mm 1 m/s 559 mmHg 62%
    07:00 +4°C° 0 mm 1 m/s 559 mmHg 63%
    08:00 +6°C° 0 mm 1 m/s 560 mmHg 57%
    09:00 +7°C° 0 mm 1 m/s 561 mmHg 51%
    10:00 +8°C° 0 mm 1 m/s 561 mmHg 46%
    11:00 +9°C° 0 mm 1 m/s 561 mmHg 43%
    12:00 +10°C° 0 mm 1 m/s 561 mmHg 40%
    13:00 +10°C° 0 mm 1 m/s 561 mmHg 36%
    14:00 +10°C° 0 mm 1 m/s 561 mmHg 35%
    15:00 +11°C° 0 mm 1 m/s 560 mmHg 33%
    16:00 +11°C° 0 mm 1 m/s 560 mmHg 31%
    17:00 +10°C° 0 mm 1 m/s 560 mmHg 35%
    18:00 +9°C° 0 mm 1 m/s 560 mmHg 38%
    19:00 +9°C° 0 mm 1 m/s 560 mmHg 41%
    20:00 +8°C° 0 mm 1 m/s 559 mmHg 42%
    21:00 +8°C° 0 mm 1 m/s 559 mmHg 42%
    22:00 +7°C° 0 mm 1 m/s 559 mmHg 43%
    23:00 +7°C° 0 mm 1 m/s 559 mmHg 43%
    Mostrar mais